Starlink 3147

operational
NORAD ID: 49410 Int'l Des: 2021-104 Owner: SPXS Country: US Constellation: starlink
LEOCIRCULAR

About Starlink 3147

Description loading...

Live Position

Loading 3D Globe...

Upcoming Passes

Altitude History

Altitude vs Time

uPlot chart will show altitude changes over time

Two-Line Element Set

1 49410U 21104C 25257.38917201 .00000274 00000-0 35316-4 0 9993
2 49410 53.2172 300.5759 0001304 84.8661 275.2480 15.08839187212014
Epoch: Sep 14, 2025 • Age: 24 hours

Current Status

Altitude 544.9 km
Velocity 7.59 km/s
Sub-Earth Point -17.88°S, 151.36°E
Launch Date Nov 13, 2021
Age 3.8 years
Type internet

Technical Details

Classification Payload
Mass 290.00 kg
Dry Mass 270.00 kg
Total Mass 290.00 kg
Length 0.20 m
Diameter 2.80 m
Span 9.00 m
Shape Box + pan
Manufacturer SPXS
Bus Type Starlink
Phase Status In Orbit
Owner/State SPXS/US

Large Constellations

Loading constellations...